Dati Storici

Data ora Umidita' aria (%) Temperatura aria (°C) Rad globale (W/m²) Gonioanemometro (°) Tacoanemometro (m/s) Pioggia (mm)
20-06-2020 11:30 49.7 % 24.978 207.19 0.788 0 0
20-06-2020 11:20 48.2 % 24.42 174.724 1.654 0 0
20-06-2020 11:10 49.7 % 25.243 99.319 1.731 0 0
20-06-2020 11:00 50 % 25.065 123.633 1.144 0 0
20-06-2020 10:50 53.1 % 25.162 113.594 -0.036 0 0
20-06-2020 10:40 52.6 % 24.516 160.608 1.195 0 0
20-06-2020 10:30 51 % 24.448 115.002 1.028 0 0
20-06-2020 10:20 46.8 % 24.181 158.269 1.462 0 0
20-06-2020 10:10 46.7 % 26.313 198.439 0.863 0 0
20-06-2020 10:00 47.5 % 24.93 3.69 -0.04 0 0
20-06-2020 09:50 48.2 % 24.451 113.672 -0.038 0 0
20-06-2020 09:40 48.4 % 24.06 121.625 -0.037 0 0
20-06-2020 09:30 49.3 % 24.492 132.075 -0.039 0 0
20-06-2020 09:20 51.1 % 23.462 290.166 -0.036 0 0
20-06-2020 09:10 52.8 % 23.626 65.267 -0.035 0 0
20-06-2020 09:00 52 % 23.195 297.418 -0.034 0 0
20-06-2020 08:50 53.5 % 23.123 116.173 0.726 0 0
20-06-2020 08:40 58.1 % 22.636 176.389 0.236 0 0
20-06-2020 08:30 60.4 % 22.375 173.194 1.755 0 0
20-06-2020 08:20 60.9 % 21.469 11.875 0.152 0 0

I dati sono presentati in modo automatico a scopo informativo. In seguito a verifica i dati possono subire modifiche o essere invalidati e non riportati negli archivi definitivi.